Other Surface Observations
Issued by NWS Jacksonville, FL

Home | Current Version | Previous Version | Text Only | Print | Product List | Glossary On
Versions: 1 2 3 4 5 6 7 8 9 10 11 12 13 14 15 16 17 18 19 20 21 22 23 24 25 26 27 28 29 30 31 32 33 34 35 36 37 38 39 40 41 42 43 44 45 46 47 48 49 50
517
SXUS52 KJAX 071313
OSOJAX
OTHER SURFACE OBSERVATIONS
NATIONAL WEATHER SERVICE JACKSONVILLE FL
800 AM EST SUN FEB 07 2016

FLZ020>025-030>033-035>038-040-071400-
...FLORIDA...

CITY           SKY/WX    TMP DP  RH WIND       PRES   REMARKS
CECIL FIELD    CLOUDY    39  39 100 N9        30.03R WCI  33
HERLONG FIELD  NOT AVBL
FERNANDINA BCH NOT AVBL
LAKE CITY      CLOUDY    39  37  93 NW7       30.07R WCI  34
JUNIPER SPGS   NOT AVBL
BUNNELL        NOT AVBL
KEYSTONE HGTS  CLOUDY    41  39  93 N13G21    30.04S WCI  34
$$

GAZ132>136-149>154-162>166-071400-
...GEORGIA...

CITY           SKY/WX    TMP DP  RH WIND       PRES   REMARKS
JESUP          CLOUDY    43  41  93 N10       30.04F WCI  37
HOMERVILLE     FAIR      41  37  87 NW7       30.07S WCI  36
SWAINSBORO     FAIR      39  28  65 N8        30.07F WCI  34
CORDELE        NOT AVBL
EASTMAN        FAIR      35  29  77 CALM      30.13S
$$

PLEASE NOTE:  THESE OBSERVATIONS ARE NOT QUALITY CONTROLLED AND MAY
NOT BE AVAILABLE AT ALL TIMES.
$$




USA.gov is the U.S. government's official web portal to all federal, state and local government web resources and services.